When you browse on this site, cookies collect data to enhance your experience and personalize the content and advertising you see.
Visit our Privacy Policy to learn more. By continuing to use the site, you agree to this use of cookies and data.
  • In Lithuania
  • List of Countries
  • For 7 days
  • Water Temperature
  • Satellite Maps
  • Weather Map
  • Weather Widgets
  • user-avatar
    Login

    Hourly Weather Sovetskoe

    Today, 25 March, Monday

    Time Temperature Precipitation Wind Pressure Humidity
    00:00 +1°C° 0 mm 3 mps 746 mmHg 86%
    01:00 0°C° 0 mm 3 mps 745 mmHg 88%
    02:00 0°C° 0 mm 3 mps 745 mmHg 90%
    03:00 -1°C° 0 mm 2 mps 745 mmHg 94%
    04:00 -1°C° 0 mm 2 mps 745 mmHg 94%
    05:00 -1°C° 0 mm 3 mps 745 mmHg 94%
    06:00 -1°C° 0 mm 3 mps 745 mmHg 94%
    07:00 +1°C° 0 mm 3 mps 745 mmHg 86%
    08:00 +2°C° 0 mm 3 mps 746 mmHg 79%
    09:00 +3°C° 0 mm 4 mps 746 mmHg 70%
    10:00 +4°C° 0 mm 4 mps 746 mmHg 62%
    11:00 +6°C° 0 mm 4 mps 746 mmHg 54%
    12:00 +7°C° 0 mm 5 mps 746 mmHg 45%
    13:00 +7°C° 0 mm 4 mps 746 mmHg 44%
    14:00 +8°C° 0 mm 4 mps 746 mmHg 42%
    15:00 +9°C° 0 mm 3 mps 746 mmHg 40%
    16:00 +9°C° 0 mm 2 mps 746 mmHg 43%
    17:00 +9°C° 0 mm 1 mps 746 mmHg 45%
    18:00 +8°C° 0 mm 0 mps 746 mmHg 48%
    19:00 +8°C° 0 mm 1 mps 746 mmHg 51%
    20:00 +6°C° 0 mm 2 mps 746 mmHg 54%
    21:00 +5°C° 0 mm 2 mps 746 mmHg 56%
    22:00 +5°C° 0 mm 2 mps 746 mmHg 59%
    23:00 +4°C° 0 mm 3 mps 746 mmHg 61%

    Tomorrow, 26 March, Tuesday

    Time Temperature Precipitation Wind Pressure Humidity
    00:00 +4°C° 0 mm 3 mps 746 mmHg 64%
    01:00 +4°C° 0.1 mm 3 mps 746 mmHg 67%
    02:00 +4°C° 0.1 mm 4 mps 746 mmHg 70%
    03:00 +3°C° 0.1 mm 4 mps 745 mmHg 73%
    04:00 +3°C° 1 mm 5 mps 745 mmHg 77%
    05:00 +3°C° 1 mm 6 mps 744 mmHg 81%
    06:00 +3°C° 1 mm 7 mps 743 mmHg 85%
    07:00 +3°C° 0.3 mm 7 mps 743 mmHg 84%
    08:00 +2°C° 0.3 mm 8 mps 743 mmHg 83%
    09:00 +4°C° 0.3 mm 8 mps 743 mmHg 82%
    10:00 +4°C° 0.1 mm 8 mps 744 mmHg 81%
    11:00 +5°C° 0.1 mm 7 mps 744 mmHg 80%
    12:00 +5°C° 0.1 mm 7 mps 744 mmHg 79%
    13:00 +7°C° 0.1 mm 6 mps 744 mmHg 73%
    14:00 +8°C° 0.1 mm 5 mps 745 mmHg 67%
    15:00 +9°C° 0.1 mm 5 mps 745 mmHg 62%
    16:00 +8°C° 0.1 mm 4 mps 745 mmHg 65%
    17:00 +9°C° 0.1 mm 3 mps 745 mmHg 67%
    18:00 +8°C° 0.1 mm 2 mps 745 mmHg 70%
    19:00 +7°C° 0.3 mm 2 mps 745 mmHg 76%
    20:00 +7°C° 0.3 mm 3 mps 745 mmHg 82%
    21:00 +5°C° 0.3 mm 3 mps 745 mmHg 88%
    22:00 +5°C° 0.3 mm 3 mps 745 mmHg 90%
    23:00 +5°C° 0.3 mm 3 mps 745 mmHg 91%

    Day after tomorrow, 27 March, Wednesday

    Time Temperature Precipitation Wind Pressure Humidity
    00:00 +4°C° 0.3 mm 3 mps 745 mmHg 93%
    01:00 +4°C° 0.1 mm 3 mps 745 mmHg 92%
    02:00 +3°C° 0.1 mm 3 mps 745 mmHg 92%
    03:00 +4°C° 0.1 mm 2 mps 745 mmHg 92%
    04:00 +2°C° 0 mm 3 mps 745 mmHg 92%
    05:00 +1°C° 0 mm 3 mps 745 mmHg 92%
    06:00 +1°C° 0 mm 3 mps 745 mmHg 92%
    07:00 +1°C° 0 mm 3 mps 745 mmHg 86%
    08:00 +2°C° 0 mm 3 mps 746 mmHg 80%
    09:00 +3°C° 0 mm 3 mps 746 mmHg 75%
    10:00 +4°C° 0 mm 3 mps 746 mmHg 66%
    11:00 +5°C° 0 mm 3 mps 747 mmHg 57%
    12:00 +7°C° 0 mm 3 mps 747 mmHg 48%
    13:00 +7°C° 0 mm 3 mps 747 mmHg 45%
    14:00 +7°C° 0 mm 3 mps 747 mmHg 41%
    15:00 +8°C° 0 mm 3 mps 747 mmHg 37%
    16:00 +7°C° 0 mm 3 mps 747 mmHg 41%
    17:00 +7°C° 0 mm 3 mps 747 mmHg 44%
    18:00 +5°C° 0 mm 3 mps 747 mmHg 48%
    19:00 +4°C° 0 mm 4 mps 748 mmHg 54%
    20:00 +3°C° 0 mm 4 mps 748 mmHg 60%
    21:00 +1°C° 0 mm 4 mps 749 mmHg 65%
    22:00 +1°C° 0 mm 4 mps 749 mmHg 70%
    23:00 0°C° 0 mm 4 mps 749 mmHg 74%

    28 March, Thursday

    Time Temperature Precipitation Wind Pressure Humidity
    00:00 -1°C° 0 mm 4 mps 749 mmHg 78%
    01:00 0°C° 0 mm 3 mps 750 mmHg 79%
    02:00 -1°C° 0 mm 3 mps 750 mmHg 81%
    03:00 -2°C° 0 mm 2 mps 751 mmHg 82%
    04:00 -2°C° 0 mm 2 mps 751 mmHg 82%
    05:00 -2°C° 0 mm 2 mps 751 mmHg 81%
    06:00 -2°C° 0 mm 2 mps 752 mmHg 80%
    07:00 -1°C° 0 mm 2 mps 752 mmHg 72%
    08:00 0°C° 0 mm 3 mps 752 mmHg 64%
    09:00 +1°C° 0 mm 3 mps 753 mmHg 56%
    10:00 +2°C° 0 mm 3 mps 753 mmHg 53%
    11:00 +3°C° 0 mm 3 mps 753 mmHg 50%
    12:00 +4°C° 0 mm 3 mps 753 mmHg 47%
    13:00 +4°C° 0.3 mm 4 mps 753 mmHg 48%
    14:00 +3°C° 0.3 mm 5 mps 753 mmHg 48%
    15:00 +3°C° 0.3 mm 5 mps 753 mmHg 49%
    16:00 +2°C° 0 mm 5 mps 753 mmHg 52%
    17:00 +2°C° 0 mm 5 mps 754 mmHg 55%
    18:00 +1°C° 0 mm 5 mps 754 mmHg 59%
    19:00 0°C° 0 mm 4 mps 754 mmHg 64%
    20:00 0°C° 0 mm 3 mps 755 mmHg 69%
    21:00 -1°C° 0 mm 3 mps 755 mmHg 74%
    22:00 -1°C° 0 mm 3 mps 755 mmHg 76%
    23:00 -1°C° 0 mm 3 mps 756 mmHg 79%

    29 March, Friday

    Time Temperature Precipitation Wind Pressure Humidity
    00:00 -1°C° 0 mm 3 mps 756 mmHg 82%
    01:00 -2°C° 0 mm 3 mps 756 mmHg 82%
    02:00 -2°C° 0 mm 3 mps 756 mmHg 83%
    03:00 -2°C° 0 mm 3 mps 756 mmHg 84%
    04:00 -2°C° 0 mm 3 mps 755 mmHg 84%
    05:00 -2°C° 0 mm 3 mps 755 mmHg 84%
    06:00 -2°C° 0 mm 3 mps 755 mmHg 83%
    07:00 -2°C° 0 mm 4 mps 755 mmHg 76%
    08:00 -1°C° 0 mm 4 mps 754 mmHg 69%
    09:00 0°C° 0 mm 5 mps 754 mmHg 62%
    10:00 +1°C° 0 mm 5 mps 753 mmHg 56%
    11:00 +2°C° 0 mm 6 mps 753 mmHg 51%
    12:00 +3°C° 0 mm 6 mps 752 mmHg 46%
    13:00 +2°C° 0.3 mm 7 mps 751 mmHg 54%
    14:00 +2°C° 0.3 mm 7 mps 750 mmHg 61%
    15:00 0°C° 0.3 mm 7 mps 749 mmHg 69%
    16:00 +1°C° 0.6 mm 6 mps 749 mmHg 75%
    17:00 0°C° 0.6 mm 5 mps 749 mmHg 80%
    18:00 0°C° 0.6 mm 4 mps 749 mmHg 86%
    19:00 0°C° 0.2 mm 4 mps 749 mmHg 88%
    20:00 -1°C° 0.2 mm 4 mps 749 mmHg 90%
    21:00 0°C° 0.2 mm 3 mps 749 mmHg 91%
    22:00 0°C° 0 mm 3 mps 750 mmHg 92%
    23:00 0°C° 0 mm 3 mps 750 mmHg 93%

    30 March, Saturday

    Time Temperature Precipitation Wind Pressure Humidity
    00:00 0°C° 0 mm 3 mps 750 mmHg 93%
    01:00 -1°C° 0 mm 3 mps 751 mmHg 94%
    02:00 -1°C° 0 mm 3 mps 751 mmHg 94%
    03:00 -2°C° 0 mm 3 mps 751 mmHg 95%
    04:00 -2°C° 0 mm 3 mps 752 mmHg 94%
    05:00 -1°C° 0 mm 3 mps 752 mmHg 94%
    06:00 -1°C° 0 mm 3 mps 753 mmHg 93%
    07:00 -1°C° 0 mm 2 mps 753 mmHg 91%
    08:00 +1°C° 0 mm 2 mps 753 mmHg 89%
    09:00 +3°C° 0 mm 1 mps 754 mmHg 87%
    10:00 +4°C° 0 mm 1 mps 754 mmHg 83%
    11:00 +5°C° 0 mm 1 mps 754 mmHg 78%
    12:00 +6°C° 0 mm 1 mps 754 mmHg 74%
    13:00 +6°C° 0 mm 1 mps 754 mmHg 72%
    14:00 +6°C° 0 mm 1 mps 754 mmHg 70%
    15:00 +7°C° 0 mm 1 mps 754 mmHg 68%
    16:00 +7°C° 0 mm 1 mps 754 mmHg 70%
    17:00 +6°C° 0 mm 1 mps 754 mmHg 72%
    18:00 +5°C° 0 mm 2 mps 754 mmHg 75%
    19:00 +4°C° 0 mm 2 mps 754 mmHg 78%
    20:00 +3°C° 0 mm 2 mps 754 mmHg 82%
    21:00 +1°C° 0 mm 3 mps 754 mmHg 86%
    22:00 +1°C° 0 mm 3 mps 754 mmHg 87%
    23:00 0°C° 0 mm 3 mps 754 mmHg 88%
    Show more